CSN6498 ZJSY-ZJHK

Flight info

Callsign CSN6498
Flight time 0h 25m
Altitude 27600
Route ZJSY DCT PORAP DCT ZJHK
Aircraft A320/M-V/N

Departure

Time 2026-04-21 14:44
Airport Sanya Phoenix International Airport (ZJSY)

Arrival

Time 2026-04-21 15:09
Airport Haikou Meilan International Airport (ZJHK)
Time Latitude Longitude Altitude Speed Heading
2026-04-21 14:18 18.30842 109.40890 84 ft 0 kts 352°
2026-04-21 14:31 18.30838 109.40890 84 ft 2 kts 352°
2026-04-21 14:31 18.30821 109.40893 87 ft 2 kts 352°
2026-04-21 14:31 18.30804 109.40895 89 ft 2 kts 352°
2026-04-21 14:31 18.30788 109.40900 86 ft 3 kts 321°
2026-04-21 14:32 18.30776 109.40914 89 ft 3 kts 286°
2026-04-21 14:32 18.30774 109.40928 88 ft 0 kts 262°
2026-04-21 14:35 18.30772 109.40922 88 ft 3 kts 257°
2026-04-21 14:35 18.30760 109.40894 86 ft 4 kts 239°
2026-04-21 14:35 18.30747 109.40873 89 ft 3 kts 240°
2026-04-21 14:35 18.30725 109.40821 85 ft 13 kts 237°
2026-04-21 14:36 18.30635 109.40799 85 ft 15 kts 172°
2026-04-21 14:36 18.30529 109.40814 87 ft 16 kts 173°
2026-04-21 14:36 18.30428 109.40818 85 ft 8 kts 199°
2026-04-21 14:36 18.30406 109.40775 83 ft 6 kts 259°
2026-04-21 14:37 18.30399 109.40732 87 ft 6 kts 263°
2026-04-21 14:37 18.30391 109.40656 83 ft 15 kts 263°
2026-04-21 14:37 18.30376 109.40548 83 ft 14 kts 263°
2026-04-21 14:37 18.30364 109.40452 84 ft 12 kts 262°
2026-04-21 14:38 18.30353 109.40367 84 ft 11 kts 263°
2026-04-21 14:38 18.30339 109.40258 84 ft 19 kts 262°
2026-04-21 14:38 18.30318 109.40096 85 ft 26 kts 262°
2026-04-21 14:38 18.30291 109.39891 84 ft 30 kts 262°
2026-04-21 14:39 18.30268 109.39719 85 ft 14 kts 259°
2026-04-21 14:39 18.30215 109.39645 86 ft 12 kts 203°
2026-04-21 14:39 18.30200 109.39640 85 ft 0 kts 193°
2026-04-21 14:41 18.30197 109.39639 85 ft 4 kts 192°
2026-04-21 14:42 18.30125 109.39641 88 ft 13 kts 170°
2026-04-21 14:42 18.30092 109.39707 86 ft 12 kts 73°
2026-04-21 14:42 18.30095 109.39723 87 ft 0 kts 80°
2026-04-21 14:43 18.30095 109.39726 87 ft 4 kts 80°
2026-04-21 14:43 18.30128 109.39964 86 ft 72 kts 83°
2026-04-21 14:43 18.30228 109.40741 82 ft 139 kts 82°
2026-04-21 14:43 18.30360 109.41876 464 ft 159 kts 84°
2026-04-21 14:44 18.30501 109.43025 1195 ft 158 kts 86°
2026-04-21 14:44 18.30658 109.44165 1930 ft 159 kts 85°
2026-04-21 14:44 18.30824 109.45364 2314 ft 176 kts 85°
2026-04-21 14:44 18.31009 109.46719 2636 ft 198 kts 85°
2026-04-21 14:45 18.31217 109.48241 2927 ft 223 kts 85°
2026-04-21 14:45 18.31701 109.49867 3403 ft 246 kts 57°
2026-04-21 14:45 18.32971 109.51138 4130 ft 258 kts 36°
2026-04-21 14:45 18.34494 109.52118 4931 ft 263 kts 30°
2026-04-21 14:46 18.36114 109.53036 5723 ft 266 kts 28°
2026-04-21 14:46 18.37754 109.53972 6495 ft 270 kts 29°
2026-04-21 14:46 18.39392 109.54956 7283 ft 272 kts 30°
2026-04-21 14:46 18.41021 109.55985 8100 ft 274 kts 31°
2026-04-21 14:47 18.42645 109.57049 8890 ft 276 kts 32°
2026-04-21 14:47 18.44274 109.58144 9703 ft 279 kts 32°
2026-04-21 14:47 18.45911 109.59261 10418 ft 281 kts 32°
2026-04-21 14:47 18.47557 109.60390 11147 ft 284 kts 32°
2026-04-21 14:48 18.49239 109.61492 11865 ft 286 kts 25°
2026-04-21 14:48 18.51098 109.62413 12175 ft 307 kts 22°
2026-04-21 14:48 18.53115 109.63380 12365 ft 330 kts 22°
2026-04-21 14:48 18.55280 109.64408 12514 ft 353 kts 22°
2026-04-21 14:49 18.57559 109.65488 12684 ft 364 kts 22°
2026-04-21 14:49 18.59931 109.66614 12718 ft 382 kts 22°
2026-04-21 14:49 18.62375 109.67780 12721 ft 387 kts 22°
2026-04-21 14:49 18.64832 109.68958 12728 ft 389 kts 22°
2026-04-21 14:50 18.66461 109.69741 12720 ft 389 kts 23°
2026-04-21 14:50 18.69753 109.71325 12724 ft 389 kts 23°
2026-04-21 14:50 18.72216 109.72510 12723 ft 389 kts 22°
2026-04-21 14:50 18.74681 109.73695 12728 ft 389 kts 22°
2026-04-21 14:51 18.77146 109.74878 12723 ft 389 kts 22°
2026-04-21 14:51 18.79609 109.76059 12728 ft 389 kts 22°
2026-04-21 14:51 18.82068 109.77237 12713 ft 387 kts 22°
2026-04-21 14:51 18.84518 109.78414 12709 ft 387 kts 22°
2026-04-21 14:52 18.86973 109.79593 12709 ft 388 kts 22°
2026-04-21 14:52 18.89429 109.80773 12718 ft 388 kts 22°
2026-04-21 14:52 18.91887 109.81955 12703 ft 388 kts 22°
2026-04-21 14:52 18.94349 109.83138 12711 ft 389 kts 22°
2026-04-21 14:53 18.96812 109.84322 12721 ft 389 kts 22°
2026-04-21 14:53 18.99276 109.85506 12714 ft 389 kts 23°
2026-04-21 14:53 19.01739 109.86693 12721 ft 389 kts 22°
2026-04-21 14:53 19.04201 109.87879 12714 ft 389 kts 22°
2026-04-21 14:54 19.06665 109.89066 12712 ft 389 kts 22°
2026-04-21 14:54 19.09130 109.90253 12709 ft 389 kts 22°
2026-04-21 14:54 19.11560 109.91424 12711 ft 389 kts 22°
2026-04-21 14:54 19.14024 109.92612 12708 ft 389 kts 22°
2026-04-21 14:55 19.16488 109.93800 12706 ft 389 kts 22°
2026-04-21 14:55 19.18954 109.94991 12703 ft 389 kts 22°
2026-04-21 14:55 19.21418 109.96180 12708 ft 389 kts 22°
2026-04-21 14:55 19.23883 109.97371 12707 ft 390 kts 22°
2026-04-21 14:56 19.26346 109.98562 12705 ft 390 kts 22°
2026-04-21 14:56 19.28813 109.99752 12669 ft 387 kts 22°
2026-04-21 14:56 19.31241 110.00919 12186 ft 382 kts 22°
2026-04-21 14:56 19.33651 110.02075 11664 ft 378 kts 22°
2026-04-21 14:57 19.35999 110.03201 11525 ft 363 kts 22°
2026-04-21 14:57 19.38253 110.04286 11406 ft 349 kts 23°
2026-04-21 14:57 19.40420 110.05328 11280 ft 336 kts 23°
2026-04-21 14:57 19.42514 110.06336 11162 ft 325 kts 22°
2026-04-21 14:58 19.44537 110.07309 11038 ft 314 kts 22°
2026-04-21 14:58 19.46500 110.08254 10768 ft 306 kts 23°
2026-04-21 14:58 19.48435 110.09186 10295 ft 306 kts 23°
2026-04-21 14:58 19.50366 110.10113 9967 ft 304 kts 23°
2026-04-21 14:59 19.51641 110.10725 9749 ft 303 kts 23°
2026-04-21 14:59 19.53562 110.11647 9370 ft 303 kts 23°
2026-04-21 14:59 19.55474 110.12567 9033 ft 302 kts 23°
2026-04-21 14:59 19.57389 110.13490 8687 ft 302 kts 23°
2026-04-21 15:00 19.59297 110.14410 8319 ft 301 kts 24°
2026-04-21 15:00 19.61199 110.15326 7954 ft 299 kts 24°
2026-04-21 15:00 19.63094 110.16231 7602 ft 297 kts 21°
2026-04-21 15:00 19.65048 110.16769 7292 ft 282 kts
2026-04-21 15:01 19.66912 110.17096 7162 ft 262 kts
2026-04-21 15:01 19.68659 110.17389 7007 ft 247 kts
2026-04-21 15:01 19.70312 110.17668 6800 ft 237 kts
2026-04-21 15:01 19.71927 110.17941 6460 ft 234 kts
2026-04-21 15:02 19.73241 110.18162 6157 ft 234 kts
2026-04-21 15:02 19.74842 110.18428 5773 ft 232 kts
2026-04-21 15:02 19.76435 110.18686 5407 ft 231 kts
2026-04-21 15:02 19.78021 110.18933 5025 ft 230 kts
2026-04-21 15:03 19.79598 110.19177 4651 ft 228 kts
2026-04-21 15:03 19.81170 110.19417 4314 ft 228 kts
2026-04-21 15:03 19.82710 110.19649 4205 ft 218 kts
2026-04-21 15:03 19.84074 110.20186 4081 ft 205 kts 32°
2026-04-21 15:04 19.85243 110.21028 3847 ft 203 kts 37°
2026-04-21 15:04 19.86374 110.21900 3650 ft 200 kts 37°
2026-04-21 15:04 19.87496 110.22773 3481 ft 200 kts 37°
2026-04-21 15:04 19.88616 110.23651 3319 ft 200 kts 37°
2026-04-21 15:05 19.89622 110.24656 3091 ft 199 kts 53°
2026-04-21 15:05 19.91227 110.27010 2612 ft 194 kts 58°
2026-04-21 15:05 19.92002 110.28171 2429 ft 192 kts 57°
2026-04-21 15:06 19.92779 110.29314 2266 ft 189 kts 58°
2026-04-21 15:06 19.93344 110.30519 2087 ft 177 kts 83°
2026-04-21 15:06 19.93433 110.31763 1994 ft 163 kts 97°
2026-04-21 15:06 19.93423 110.32950 1954 ft 160 kts 98°
2026-04-21 15:07 19.93427 110.34130 1830 ft 154 kts 97°
2026-04-21 15:07 19.93440 110.35239 1706 ft 149 kts 99°
2026-04-21 15:07 19.93447 110.36326 1486 ft 146 kts 99°
2026-04-21 15:07 19.93456 110.37394 1294 ft 142 kts 98°
2026-04-21 15:08 19.93468 110.38438 1062 ft 142 kts 99°
2026-04-21 15:08 19.93448 110.39482 921 ft 141 kts 94°
2026-04-21 15:08 19.93459 110.40527 758 ft 141 kts 94°
2026-04-21 15:08 19.93470 110.41578 590 ft 145 kts 94°
2026-04-21 15:09 19.93462 110.42665 384 ft 149 kts 91°
2026-04-21 15:09 19.93473 110.43754 220 ft 146 kts 93°
2026-04-21 15:09 19.93476 110.44821 88 ft 136 kts 92°
2026-04-21 15:09 19.93479 110.45556 83 ft 43 kts 90°
2026-04-21 15:10 19.93480 110.45724 82 ft 20 kts 92°
2026-04-21 15:10 19.93480 110.45887 81 ft 25 kts 90°
2026-04-21 15:10 19.93519 110.46065 82 ft 24 kts 67°
2026-04-21 15:10 19.93558 110.46154 70 ft 10 kts 64°
2026-04-21 15:11 19.93589 110.46222 72 ft 11 kts 63°
2026-04-21 15:11 19.93614 110.46274 69 ft 0 kts 63°
2026-04-21 15:11 19.93620 110.46288 73 ft 7 kts 63°
2026-04-21 15:11 19.93653 110.46361 72 ft 12 kts 70°
2026-04-21 15:12 19.93662 110.46443 77 ft 11 kts 89°
2026-04-21 15:12 19.93662 110.46540 77 ft 18 kts 89°
2026-04-21 15:12 19.93661 110.46688 76 ft 21 kts 89°
2026-04-21 15:12 19.93684 110.46814 68 ft 13 kts 102°
2026-04-21 15:13 19.93663 110.46919 76 ft 16 kts 91°
2026-04-21 15:13 19.93663 110.47042 76 ft 18 kts 90°
2026-04-21 15:13 19.93730 110.47110 67 ft 12 kts 326°
2026-04-21 15:13 19.93738 110.47049 74 ft 8 kts 271°
2026-04-21 15:14 19.93738 110.46986 71 ft 13 kts 270°
2026-04-21 15:14 19.93767 110.46879 72 ft 18 kts 331°
2026-04-21 15:14 19.93912 110.46868 74 ft 24 kts 360°
2026-04-21 15:14 19.94102 110.46868 65 ft 30 kts